GW4239 Weather Reports


time (UTC)temp
C
wind
direction
speed
KPH
gust
KPH
rain 1hr
cm
rain 24hr
cm
rain mn
cm
humidity
%
barometer
mb
20260502194917 12 352 6.4 11.3 0.00 0.00 0.00 46 1013.5
20260502193916 12 319 1.6 12.9 0.00 0.00 0.00 43 1013.5
20260502192917 12 314 4.8 9.7 0.00 0.00 0.00 43 1013.5
20260502191917 12 7 11.3 19.3 0.00 0.00 0.00 43 1013.5
20260502190917 12 258 3.2 11.3 0.00 0.00 0.00 43 1013.5
20260502185937 12 337 3.2 8.0 0.00 0.00 0.00 41 1013.6
20260502184916 12 14 4.8 9.7 0.00 0.00 0.00 42 1013.7
20260502183916 12 311 4.8 9.7 0.00 0.00 0.00 43 1013.8
20260502182917 12 322 9.7 17.7 0.00 0.00 0.00 40 1013.8
20260502181937 12 37 6.4 8.0 0.00 0.00 0.00 41 1013.7
20260502180916 12 320 6.4 9.7 0.00 0.00 0.00 41 1013.8
20260502163917 12 26 4.8 8.0 0.00 0.00 0.00 43 1014.4
20260502162937 12 315 3.2 11.3 0.00 0.00 0.00 41 1014.5
20260502161916 12 264 3.2 4.8 0.00 0.00 0.00 43 1014.7
20260502160937 12 358 4.8 11.3 0.00 0.00 0.00 47 1014.9
20260502151916 10 336 3.2 8.0 0.00 0.00 0.00 54 1015.4
20260502150916 10 25 6.4 12.9 0.00 0.00 0.00 52 1015.3
20260502122936 6 3 4.8 8.0 0.00 0.00 0.00 68 1015.5
20260502121917 6 197 1.6 4.8 0.00 0.00 0.00 69 1015.6
20260502120916 6 326 3.2 6.4 0.00 0.00 0.00 69 1015.8
20260502115916 6 239 3.2 3.2 0.00 0.00 0.00 70 1015.6
20260502114916 6 163 0.0 3.2 0.00 0.00 0.00 70 1015.6
20260502113916 6 64 1.6 3.2 0.00 0.00 0.00 71 1015.7
20260502112917 5 342 4.8 8.0 0.00 0.00 0.00 72 1015.6
20260502111917 5 36 1.6 3.2 0.00 0.00 0.00 71 1015.4
20260502110917 5 338 3.2 4.8 0.00 0.00 0.00 70 1015.4
20260502105916 6 238 0.0 1.6 0.00 0.00 0.00 69 1015.4
20260502104916 6 248 3.2 4.8 0.00 0.00 0.00 68 1015.3
20260502103916 6 21 4.8 8.0 0.00 0.00 0.00 68 1015.2
20260502102916 6 38 1.6 3.2 0.00 0.00 0.00 66 1015.2
20260502101917 6 235 1.6 3.2 0.00 0.00 0.00 67 1015.5
20260502100917 6 206 1.6 4.8 0.00 0.00 0.00 66 1015.5
20260502090916 7 242 0.0 4.8 0.00 0.00 0.00 59 1015.5
20260502070917 8 191 1.6 3.2 0.00 0.00 0.00 59 1014.9
20260502065916 9 324 3.2 6.4 0.00 0.00 0.00 61 1015.0
20260502064917 9 316 3.2 9.7 0.00 0.00 0.00 65 1015.0
20260502063916 9 319 3.2 4.8 0.00 0.00 0.00 67 1015.1
20260502062916 9 325 6.4 12.9 0.00 0.00 0.00 67 1015.1
20260502061916 10 359 6.4 8.0 0.00 0.00 0.00 69 1015.1
20260502060937 10 345 1.6 4.8 0.00 0.00 0.00 69 1015.1
20260502055917 10 187 4.8 8.0 0.00 0.00 0.00 69 1015.0
20260502054936 10 0 4.8 8.0 0.00 0.00 0.00 69 1015.0
20260502053916 10 252 1.6 12.9 0.00 0.00 0.00 68 1014.9
20260502052937 10 129 4.8 6.4 0.00 0.00 0.00 68 1014.9
20260502051916 10 352 1.6 3.2 0.00 0.00 0.00 67 1014.9
20260502050916 10 17 4.8 6.4 0.00 0.00 0.00 67 1015.0
20260502045916 10 348 1.6 4.8 0.00 0.00 0.00 66 1014.9
20260502044916 10 347 6.4 9.7 0.00 0.00 0.00 65 1014.9
20260502043937 10 12 1.6 4.8 0.00 0.00 0.00 65 1015.1
20260502042916 10 0.0 0.0 0.00 0.00 0.00 64 1015.1
20260502041916 10 6 4.8 9.7 0.00 0.00 0.00 64 1015.0
20260502040937 11 42 3.2 4.8 0.00 0.00 0.00 65 1015.1
20260502035917 11 318 3.2 8.0 0.00 0.00 0.00 64 1015.1
20260502034956 11 308 3.2 9.7 0.00 0.00 0.00 64 1015.1
20260502033916 11 277 3.2 8.0 0.00 0.00 0.00 63 1015.1
20260502032917 11 345 4.8 12.9 0.00 0.00 0.00 63 1015.1
20260502031916 11 298 6.4 11.3 0.00 0.00 0.00 63 1015.1
20260502030916 11 337 1.6 9.7 0.00 0.00 0.00 64 1015.2
20260502025916 11 245 1.6 3.2 0.00 0.00 0.00 65 1015.0
20260502024916 12 1 3.2 11.3 0.00 0.00 0.00 65 1014.9
20260502023916 12 78 0.0 4.8 0.00 0.00 0.00 65 1014.8
20260502022916 12 22 1.6 8.0 0.00 0.00 0.00 65 1014.7
20260502021936 12 315 0.0 6.4 0.00 0.00 0.00 65 1014.5
20260502020916 12 230 3.2 16.1 0.00 0.00 0.00 66 1014.5
20260502015937 12 299 3.2 6.4 0.00 0.00 0.00 65 1014.2
20260502014936 12 297 1.6 3.2 0.00 0.00 0.00 64 1013.7
20260502013917 12 319 1.6 8.0 0.00 0.00 0.00 65 1013.7
20260502012916 12 309 3.2 14.5 0.00 0.00 0.00 64 1013.8
20260502011916 12 341 6.4 14.5 0.00 0.00 0.00 62 1013.5
20260502010937 13 19 8.0 11.3 0.00 0.00 0.00 59 1013.1
20260502005916 14 352 4.8 12.9 0.00 0.00 0.00 56 1012.8
20260502004917 15 356 4.8 8.0 0.00 0.00 0.00 53 1012.4
20260502003917 16 341 8.0 14.5 0.00 0.00 0.00 47 1011.9
20260502002916 16 339 6.4 14.5 0.00 0.00 0.00 41 1011.6
20260502001916 16 283 0.0 4.8 0.00 0.00 0.00 40 1011.0
20260502000917 17 319 3.2 4.8 0.00 0.00 0.00 39 1010.9
20260501235916 17 304 0.0 3.2 0.00 0.00 0.00 38 1010.8
20260501234916 17 302 1.6 8.0 0.00 0.00 0.00 38 1010.5
20260501233936 17 280 1.6 3.2 0.00 0.00 0.00 37 1010.2
20260501232916 17 278 4.8 6.4 0.00 0.00 0.00 37 1010.3
20260501231917 18 293 1.6 8.0 0.00 0.00 0.00 36 1010.2
20260501230916 18 248 3.2 4.8 0.00 0.00 0.00 36 1010.3
20260501225916 18 349 3.2 8.0 0.00 0.00 0.00 35 1010.3
20260501224937 18 325 3.2 4.8 0.00 0.00 0.00 35 1010.3
20260501223917 19 282 3.2 4.8 0.00 0.00 0.00 34 1010.1
20260501222916 19 254 4.8 11.3 0.00 0.00 0.00 34 1010.3
20260501221917 19 318 4.8 14.5 0.00 0.00 0.00 33 1010.2
20260501220916 19 310 1.6 11.3 0.00 0.00 0.00 30 1010.1
20260501215917 20 264 4.8 24.1 0.00 0.00 0.00 30 1010.1
20260501214937 21 279 3.2 6.4 0.00 0.00 0.00 30 1009.9
20260501213916 21 321 3.2 6.4 0.00 0.00 0.00 27 1009.9
20260501212916 21 324 9.7 19.3 0.00 0.00 0.00 26 1009.9
20260501211916 21 259 9.7 22.5 0.00 0.00 0.00 27 1009.9
20260501210937 21 262 9.7 19.3 0.00 0.00 0.00 27 1009.8
20260501205916 21 235 12.9 27.4 0.00 0.00 0.00 25 1010.0
20260501204916 21 243 12.9 22.5 0.00 0.00 0.00 26 1009.8
20260501203916 21 213 11.3 14.5 0.00 0.00 0.00 30 1010.0
20260501202916 21 244 6.4 14.5 0.00 0.00 0.00 27 1010.0
20260501201916 21 234 9.7 16.1 0.00 0.00 0.00 30 1010.0
20260501200916 20 232 9.7 17.7 0.00 0.00 0.00 26 1010.2
20260501195916 20 239 6.4 11.3 0.00 0.00 0.00 26 1010.3